Regional Weather Roundup
Issued by NWS Green Bay, WI

Home | Current Version | Previous Version | Graphics & Text | Print | Product List | Glossary Off
Versions: 1 2 3 4 5 6 7 8 9 10 11 12 13 14 15 16 17 18 19 20 21 22 23 24 25 26 27 28 29 30 31 32 33 34 35 36 37 38 39 40 41 42 43 44 45 46 47 48 49 50

000
ASUS43 KGRB 271700
RWRGRB

NORTH-CENTRAL AND NORTHEAST WISCONSIN REGIONAL WEATHER ROUNDUP
NATIONAL WEATHER SERVICE GREEN BAY WI
1200 PM CDT THU AUG 27 2015

WIZ005-009-010>012-018-019-271800-
NORTH CENTRAL WISCONSIN

CITY           SKY/WX    TMP DP  RH WIND       PRES   REMARKS
IRONWOOD       SUNNY     70  50  49 SW7       30.09F
MANITOWISH WTR NOT AVBL
ARBOR VITAE    NOT AVBL
EAGLE RIVER    NOT AVBL
LAND O LAKES   NOT AVBL
RHINELANDER    SUNNY     69  53  56 SW7       30.16F
PHILLIPS       MOSUNNY   68  55  64 SW6       30.14S
ANTIGO         NOT AVBL
TOMAHAWK       NOT AVBL
MERRILL        MOSUNNY   68  56  64 W8        30.16F
$$

WIZ013-073-271800-
NORTHEAST WISCONSIN

CITY           SKY/WX    TMP DP  RH WIND       PRES   REMARKS
IRON MOUNTAIN  MOSUNNY   62  54  74 S6        30.15F
MARINETTE      SUNNY     64  54  68 SE9       30.15F
$$

WIZ017-030-035>037-045-271800-
CENTRAL WISCONSIN

CITY           SKY/WX    TMP DP  RH WIND       PRES   REMARKS
MEDFORD        NOT AVBL
WAUSAU         SUNNY     70  54  56 S7        30.14F
MOSINEE        MOSUNNY   70  55  60 SW5       30.16F
MARSHFIELD     MOSUNNY   71  52  50 S6        30.16S
WISC RAPIDS    SUNNY     72  53  51 SW10      30.17S
STEVENS POINT  NOT AVBL
WAUPACA        NOT AVBL
SHAWANO        NOT AVBL
CLINTONVILLE   SUNNY     68  54  60 W5        30.16F
WAUTOMA        NOT AVBL
$$

WIZ038-039-048-051-271800-
FOX VALLEY

CITY           SKY/WX    TMP DP  RH WIND       PRES   REMARKS
NWS GREEN BAY  SUNNY     70  58  65 CALM      30.16F
APPLETON       MOSUNNY   70  55  60 SW7       30.15F
OSHKOSH        MOSUNNY   70  57  63 MISG      30.16F
FOND DU LAC    SUNNY     71  57  61 SW7       30.17S
$$

WIZ022-050-052-271800-
EAST CENTRAL WISCONSIN

CITY           SKY/WX    TMP DP  RH WIND       PRES   REMARKS
EPHRAIM        FAIR      66  58  75 W6        30.15F
STURGEON BAY   MOSUNNY   64  57  77 NW6       30.18F
MANITOWOC      NOT AVBL
SHEBOYGAN      PTSUNNY   70  60  70 E7        30.17S
$$

LMZ563-521-522-541>543-271800-
LAKESHORE

STATION/POSITION TIME  TEMP    WIND        PRES    VSBY  WAVE
                       AIR SEA DIR/SP/G                  HT/PER
                 (UTC) (F)     (DEG/KT/KT) (MB)    (MI)  (FT/S)
SHEBOYGAN LKSHOR 1600   57     180/ 14/ 14 1022.3F
KEWAUNEE LKSHORE 1600   52     160/  7/  8 1020.8R
ALGOMA MARINA    1614             CALM       N/A
NORTHPORT PIER   1600   59     150/  6/  8 1021.0F
N MID LAKE BUOY  1550   61 64  100/  6/  8 1021.5F         0
S GREEN BAY BUOY 1600   55     250/  6/  8 1023.2R
SISTER BAY LKSHO 1619   67     180/  7/  9   N/A
CHAMBERS ISLAND  1600   67     330/  3/  4 1021.7R
MENOMINEE LKSHOR 1600   60      CALM  /  2 1020.4R
$$


USA.gov is the U.S. government's official web portal to all federal, state and local government web resources and services.